Hourly Data Report for December 02, 2019

SAINT JOHN A
NEW BRUNSWICK
Current Station Operator: NAVCAN

45°18'58.000" N
65°53'24.000" W
108.80 m
8104901
71609
YSJ

Download Data

Hourly Data (December 2019)
Hourly Data Report for December 2, 2019
TIME
LST
Temp Definition
°C
Dew Point Definition
°C
Rel Hum Definition
%
Precip. Amount Definition
mm

Wind Dir Definition
10's deg

Wind Spd Definition
km/h
Visibility Definition
km
Stn Press Definition
kPa
Hmdx Definition


Wind Chill Definition


Weather Definition


00:00 -6.9 -10.8 74   5 7 24.1 100.20   -10 LegendNANA
01:00 -8.2 -11.1 80   2 9 24.1 100.19   -13 LegendNANA
02:00 -6.7 -10.8 73   5 7 24.1 100.09   -10 Cloudy
03:00 -6.9 -11.1 73   4 7 24.1 100.09   -10 LegendNANA
04:00 -6.6 -10.3 75   4 7 24.1 100.13   -10 LegendNANA
05:00 -6.3 -9.6 78   4 8 24.1 100.06   -10 Cloudy
06:00 -6.3 -8.4 85   2 7 24.1 100.00   -10 LegendNANA
07:00 -5.1 -7.8 81   4 5 24.1 99.97   -7 LegendNANA
08:00 -6.1 -8.2 86   3 14 24.1 99.97   -12 Mostly Cloudy
09:00 -5.0 -7.8 81   2 14 24.1 100.03   -10 LegendNANA
10:00 -3.9 -6.9 80   2 17 24.1 99.99   -10 LegendNANA
11:00 -0.9 -6.7 65   4 17 24.1 99.92   -6 Mostly Cloudy
12:00 0.2 -9.4 49   5 18 24.1 99.80     LegendNANA
13:00 1.1 -10.4 42   6 24 24.1 99.73     LegendNANA
14:00 1.4 -12.0 37   8 23 24.1 99.61     Mainly Clear
15:00 1.9 -11.4 37   5 25 24.1 99.59     LegendNANA
16:00 -0.2 -9.8 49   5 25 24.1 99.59   -6 LegendNANA
17:00 -1.0 -8.4 57   4 23 24.1 99.58   -7 Mainly Clear
18:00 -1.8 -7.7 64   4 27 24.1 99.54   -8 LegendNANA
19:00 -2.3 -6.9 71   4 28 24.1 99.47   -9 LegendNANA
20:00 -1.9 -6.5 71   4 26 24.1 99.50   -8 Cloudy
21:00 -1.8 -6.5 71   4 21 24.1 99.32   -8 LegendNANA
22:00 -1.7 -6.3 71   4 17 24.1 99.39   -7 LegendNANA
23:00 -1.6 -6.0 72   4 25 24.1 99.31   -8 Cloudy

Notes on Data Quality.

Legend

  • E = Estimated
  • M = Missing
  • NA = Not Available*
  • [empty] = Indicates an unobserved value
Date modified: